EN

Hourly Weather Abakonovo

Today, 14 June, Monday

Time Temperature Precipitation Wind Pressure Humidity
00:00 +14°C° 0 mm 2 mps 739 mmHg 97%
01:00 +14°C° 0 mm 2 mps 739 mmHg 97%
02:00 +14°C° 0 mm 2 mps 740 mmHg 97%
03:00 +14°C° 0 mm 2 mps 740 mmHg 97%
04:00 +14°C° 0 mm 2 mps 741 mmHg 97%
05:00 +14°C° 0 mm 2 mps 741 mmHg 97%
06:00 +16°C° 0 mm 2 mps 742 mmHg 90%
07:00 +17°C° 0 mm 2 mps 742 mmHg 84%
08:00 +19°C° 0 mm 2 mps 743 mmHg 77%
09:00 +20°C° 0.1 mm 2 mps 743 mmHg 72%
10:00 +21°C° 0.1 mm 2 mps 743 mmHg 66%
11:00 +22°C° 0.1 mm 3 mps 744 mmHg 60%
12:00 +22°C° 0.1 mm 3 mps 744 mmHg 58%
13:00 +24°C° 0.1 mm 3 mps 744 mmHg 56%
14:00 +24°C° 0.1 mm 3 mps 744 mmHg 54%
15:00 +24°C° 0 mm 2 mps 744 mmHg 54%
16:00 +24°C° 0 mm 2 mps 744 mmHg 55%
17:00 +24°C° 0 mm 2 mps 744 mmHg 55%
18:00 +21°C° 0 mm 2 mps 744 mmHg 62%
19:00 +19°C° 0 mm 2 mps 744 mmHg 70%
20:00 +18°C° 0 mm 2 mps 744 mmHg 77%
21:00 +18°C° 0 mm 1 mps 744 mmHg 79%
22:00 +16°C° 0 mm 1 mps 744 mmHg 81%
23:00 +15°C° 0 mm 1 mps 744 mmHg 83%

Tomorrow, 15 June, Tuesday

Time Temperature Precipitation Wind Pressure Humidity
00:00 +14°C° 0 mm 1 mps 744 mmHg 84%
01:00 +14°C° 0 mm 1 mps 744 mmHg 86%
02:00 +12°C° 0 mm 0 mps 743 mmHg 87%
03:00 +13°C° 0 mm 0 mps 743 mmHg 85%
04:00 +13°C° 0 mm 0 mps 743 mmHg 82%
05:00 +14°C° 0 mm 0 mps 743 mmHg 80%
06:00 +18°C° 0 mm 1 mps 743 mmHg 73%
07:00 +20°C° 0 mm 1 mps 743 mmHg 66%
08:00 +21°C° 0 mm 2 mps 743 mmHg 59%
09:00 +23°C° 0 mm 2 mps 743 mmHg 55%
10:00 +24°C° 0 mm 3 mps 742 mmHg 51%
11:00 +25°C° 0 mm 3 mps 742 mmHg 47%
12:00 +26°C° 0 mm 3 mps 742 mmHg 44%
13:00 +26°C° 0 mm 3 mps 742 mmHg 41%
14:00 +26°C° 0 mm 3 mps 741 mmHg 38%
15:00 +26°C° 0 mm 3 mps 741 mmHg 39%
16:00 +26°C° 0 mm 3 mps 741 mmHg 41%
17:00 +25°C° 0 mm 3 mps 741 mmHg 42%
18:00 +22°C° 0 mm 3 mps 741 mmHg 53%
19:00 +20°C° 0 mm 2 mps 741 mmHg 64%
20:00 +18°C° 0 mm 2 mps 741 mmHg 74%
21:00 +17°C° 0 mm 2 mps 741 mmHg 80%
22:00 +16°C° 0 mm 2 mps 741 mmHg 87%
23:00 +15°C° 0 mm 1 mps 741 mmHg 93%

Day after tomorrow, 16 June, Wednesday

Time Temperature Precipitation Wind Pressure Humidity
00:00 +15°C° 0 mm 2 mps 741 mmHg 94%
01:00 +15°C° 0 mm 2 mps 742 mmHg 96%
02:00 +14°C° 0 mm 2 mps 742 mmHg 97%
03:00 +14°C° 0 mm 2 mps 742 mmHg 92%
04:00 +14°C° 0 mm 2 mps 743 mmHg 88%
05:00 +14°C° 0 mm 2 mps 743 mmHg 83%
06:00 +15°C° 0 mm 2 mps 743 mmHg 73%
07:00 +17°C° 0 mm 3 mps 744 mmHg 63%
08:00 +18°C° 0 mm 3 mps 744 mmHg 53%
09:00 +19°C° 0 mm 3 mps 744 mmHg 47%
10:00 +20°C° 0 mm 3 mps 745 mmHg 42%
11:00 +22°C° 0 mm 3 mps 745 mmHg 36%
12:00 +22°C° 0 mm 3 mps 745 mmHg 35%
13:00 +22°C° 0 mm 3 mps 745 mmHg 33%
14:00 +24°C° 0 mm 3 mps 745 mmHg 31%
15:00 +22°C° 0 mm 3 mps 746 mmHg 34%
16:00 +22°C° 0 mm 3 mps 746 mmHg 38%
17:00 +21°C° 0 mm 2 mps 746 mmHg 41%
18:00 +20°C° 0 mm 2 mps 746 mmHg 49%
19:00 +18°C° 0 mm 2 mps 746 mmHg 57%
20:00 +16°C° 0 mm 2 mps 747 mmHg 66%
21:00 +15°C° 0 mm 1 mps 747 mmHg 67%
22:00 +13°C° 0 mm 1 mps 748 mmHg 68%
23:00 +12°C° 0 mm 1 mps 748 mmHg 68%

17 June, Thursday

Time Temperature Precipitation Wind Pressure Humidity
00:00 +12°C° 0 mm 1 mps 748 mmHg 69%
01:00 +12°C° 0 mm 1 mps 749 mmHg 70%
02:00 +10°C° 0 mm 0 mps 749 mmHg 70%
03:00 +11°C° 0 mm 0 mps 749 mmHg 70%
04:00 +12°C° 0 mm 0 mps 750 mmHg 70%
05:00 +12°C° 0 mm 0 mps 750 mmHg 70%
06:00 +15°C° 0 mm 0 mps 750 mmHg 62%
07:00 +17°C° 0 mm 0 mps 750 mmHg 54%
08:00 +19°C° 0 mm 0 mps 751 mmHg 47%
09:00 +21°C° 0 mm 0 mps 751 mmHg 43%
10:00 +22°C° 0 mm 0 mps 751 mmHg 39%
11:00 +25°C° 0 mm 1 mps 751 mmHg 36%
12:00 +26°C° 0 mm 1 mps 751 mmHg 34%
13:00 +26°C° 0 mm 1 mps 751 mmHg 33%
14:00 +27°C° 0 mm 1 mps 751 mmHg 32%
15:00 +26°C° 0 mm 1 mps 751 mmHg 34%
16:00 +26°C° 0 mm 1 mps 751 mmHg 35%
17:00 +26°C° 0 mm 1 mps 751 mmHg 37%
18:00 +24°C° 0 mm 1 mps 751 mmHg 47%
19:00 +22°C° 0 mm 1 mps 751 mmHg 56%
20:00 +20°C° 0 mm 1 mps 751 mmHg 66%
21:00 +17°C° 0 mm 0 mps 751 mmHg 67%
22:00 +16°C° 0 mm 0 mps 751 mmHg 68%
23:00 +15°C° 0 mm 0 mps 752 mmHg 70%

18 June, Friday

Time Temperature Precipitation Wind Pressure Humidity
00:00 +14°C° 0 mm 0 mps 752 mmHg 72%
01:00 +13°C° 0 mm 0 mps 752 mmHg 74%
02:00 +13°C° 0 mm 0 mps 752 mmHg 76%
03:00 +14°C° 0 mm 0 mps 752 mmHg 76%
04:00 +14°C° 0 mm 0 mps 752 mmHg 75%
05:00 +15°C° 0 mm 0 mps 752 mmHg 75%
06:00 +19°C° 0 mm 1 mps 752 mmHg 67%
07:00 +21°C° 0 mm 1 mps 752 mmHg 59%
08:00 +23°C° 0 mm 1 mps 752 mmHg 51%
09:00 +25°C° 0 mm 2 mps 752 mmHg 47%
10:00 +26°C° 0 mm 2 mps 752 mmHg 43%
11:00 +27°C° 0 mm 2 mps 752 mmHg 38%
12:00 +28°C° 0 mm 3 mps 752 mmHg 37%
13:00 +28°C° 0 mm 3 mps 752 mmHg 36%
14:00 +29°C° 0 mm 3 mps 752 mmHg 35%
15:00 +29°C° 0 mm 3 mps 751 mmHg 38%
16:00 +28°C° 0 mm 3 mps 751 mmHg 41%
17:00 +28°C° 0 mm 3 mps 751 mmHg 44%
18:00 +26°C° 0 mm 2 mps 751 mmHg 55%
19:00 +24°C° 0 mm 2 mps 751 mmHg 66%
20:00 +20°C° 0 mm 2 mps 751 mmHg 76%
21:00 +19°C° 0 mm 2 mps 751 mmHg 81%
22:00 +18°C° 0 mm 2 mps 751 mmHg 86%
23:00 +17°C° 0 mm 2 mps 752 mmHg 92%

19 June, Saturday

Time Temperature Precipitation Wind Pressure Humidity
00:00 +17°C° 0 mm 2 mps 752 mmHg 93%
01:00 +16°C° 0 mm 2 mps 752 mmHg 95%
02:00 +16°C° 0 mm 2 mps 752 mmHg 96%
03:00 +16°C° 0 mm 2 mps 752 mmHg 94%
04:00 +16°C° 0 mm 2 mps 752 mmHg 91%
05:00 +17°C° 0 mm 2 mps 752 mmHg 89%
06:00 +19°C° 0 mm 2 mps 752 mmHg 79%
07:00 +21°C° 0 mm 2 mps 752 mmHg 70%
08:00 +24°C° 0 mm 2 mps 753 mmHg 60%
09:00 +25°C° 0 mm 2 mps 752 mmHg 55%
10:00 +27°C° 0 mm 2 mps 752 mmHg 49%
11:00 +28°C° 0 mm 2 mps 752 mmHg 44%
12:00 +29°C° 0 mm 2 mps 752 mmHg 42%
13:00 +29°C° 0 mm 2 mps 752 mmHg 39%
14:00 +30°C° 0 mm 2 mps 752 mmHg 37%
15:00 +30°C° 0 mm 2 mps 751 mmHg 39%
16:00 +30°C° 0 mm 2 mps 751 mmHg 41%
17:00 +29°C° 0 mm 2 mps 751 mmHg 43%
18:00 +27°C° 0 mm 2 mps 751 mmHg 54%
19:00 +25°C° 0 mm 2 mps 751 mmHg 64%
20:00 +23°C° 0 mm 2 mps 751 mmHg 75%
21:00 +21°C° 0 mm 2 mps 751 mmHg 80%
22:00 +19°C° 0 mm 2 mps 751 mmHg 85%
23:00 +18°C° 0 mm 2 mps 751 mmHg 91%
Show more